Simultaneous Nadir Overpasses (SNOs) Predictions

Prediction of SNOs between GOES-15 and NPP Satellite Orbit:

Table of predicted SNOs for the next 14.0 days since TLE Epoch: 9/25/2015
Index Date Time (GOES-15) GOES-15 Lat,Lon NPP Lat,Lon Distance(km) Time Diff (sec)
1 09/25/2015 22:36:55 -0.29,-135.23 -0.73,-137.37 242.76 80
2 09/26/2015 22:20:48 -0.29,-135.22 0.22,-132.83 272.70 80
3 09/28/2015 10:39:55 0.27,-135.18 0.91,-138.10 332.55 80
4 09/29/2015 10:23:47 0.28,-135.17 -0.05,-133.56 182.69 80
5 09/30/2015 22:43:00 -0.26,-135.15 -1.12,-138.86 422.81 80
6 10/01/2015 22:26:53 -0.27,-135.14 -0.10,-134.32 92.86 80
7 10/04/2015 10:27:07 0.26,-135.07 0.27,-135.03 4.43 80
8 10/06/2015 22:30:08 -0.24,-135.02 -0.41,-135.77 85.71 80
9 10/07/2015 22:13:57 -0.25,-135.00 0.57,-131.22 430.49 80




NCC Satellite Simultaneous Nadir Overpasses (SNOs) Prediction Service
